Location: ???? ?????
(30.0052°N, 31.2891°E)
Time: 04:07:15
(UTC+00:00)

Cosmos 1331 Rocket - Visible Passes

Search period start: 30 September 2022 00:00
Search period end: 10 October 2022 00:00
Orbit: 749 x 777 km, 74.0° (Epoch: 29 September)

Date Brightness Start Highest point End Pass type
(mag) Time Alt. Az. Time Alt. Az. Time Alt. Az.
30 Sep 5.3 02:03:59 10° SSE 02:08:43 39° E 02:13:28 10° NNE visible
01 Oct 6.4 01:26:44 10° SE 01:30:26 20° E 01:34:06 10° NE visible
01 Oct 4.6 03:07:27 10° SW 03:12:03 33° WNW 03:16:41 10° N visible
02 Oct 3.9 02:28:43 12° SSW 02:33:28 64° WNW 02:38:35 10° N visible
03 Oct 4.2 01:52:41 32° S 01:55:00 65° ESE 02:00:07 10° NNE visible
04 Oct 5.4 01:16:20 32° ESE 01:16:38 33° E 01:21:12 10° NE visible
04 Oct 5.2 02:56:35 17° W 02:58:34 21° WNW 03:02:26 10° NNW visible
05 Oct 6.6 00:39:44 15° ENE 00:39:44 15° ENE 00:41:34 10° ENE visible
05 Oct 4.4 02:19:58 39° WNW 02:19:58 39° WNW 02:24:43 10° N visible
06 Oct 4.8 01:43:09 41° N 01:43:09 41° N 01:46:31 10° NNE visible
07 Oct 6.1 01:06:12 21° NNE 01:06:12 21° NNE 01:07:55 10° NNE visible
07 Oct 5.9 02:46:24 12° NW 02:46:24 12° NW 02:47:34 10° NW visible
08 Oct 5.9 02:09:19 15° NNW 02:09:19 15° NNW 02:10:35 10° NNW visible
09 Oct 6.3 01:32:08 13° N 01:32:08 13° N 01:32:42 10° N visible
